<?xml version="1.0" encoding="UTF-8" standalone="no" ?>
<gpx xmlns="http://www.topografix.com/GPX/1/1" xmlns:xsi="http://www.w3.org/2001/XMLSchema-instance" xsi:schemaLocation="http://www.topografix.com/GPX/1/1 http://www.topografix.com/GPX/1/1/gpx.xsd" version="1.1" creator="VisuGPX - https://www.visugpx.com">
  <metadata>
    <name>Rando st clement 28kms</name>
    <desc><![CDATA[Rando au depart de st clement sportive]]></desc>
  </metadata>
  <trk>
    <name><![CDATA[track]]></name>
    <trkseg>
      <trkpt lat="46.06231" lon="3.70458">
        <ele>490</ele>
        <time>2011-11-18T15:17:41Z</time>
      </trkpt>
      <trkpt lat="46.06148" lon="3.70379">
        <ele>488</ele>
        <time>2011-11-18T15:17:41Z</time>
      </trkpt>
      <trkpt lat="46.06056" lon="3.70208">
        <ele>486</ele>
        <time>2011-11-18T15:17:41Z</time>
      </trkpt>
      <trkpt lat="46.05989" lon="3.70189">
        <ele>499</ele>
        <time>2011-11-18T15:17:41Z</time>
      </trkpt>
      <trkpt lat="46.06047" lon="3.70121">
        <ele>511</ele>
        <time>2011-11-18T15:17:41Z</time>
      </trkpt>
      <trkpt lat="46.06146" lon="3.69984">
        <ele>549</ele>
        <time>2011-11-18T15:17:41Z</time>
      </trkpt>
      <trkpt lat="46.06173" lon="3.69984">
        <ele>550</ele>
        <time>2011-11-18T15:17:41Z</time>
      </trkpt>
      <trkpt lat="46.06189" lon="3.69944">
        <ele>559</ele>
        <time>2011-11-18T15:17:41Z</time>
      </trkpt>
      <trkpt lat="46.06153" lon="3.69926">
        <ele>559</ele>
        <time>2011-11-18T15:17:41Z</time>
      </trkpt>
      <trkpt lat="46.06122" lon="3.69969">
        <ele>552</ele>
        <time>2011-11-18T15:17:41Z</time>
      </trkpt>
      <trkpt lat="46.06066" lon="3.69997">
        <ele>549</ele>
        <time>2011-11-18T15:17:41Z</time>
      </trkpt>
      <trkpt lat="46.05944" lon="3.70033">
        <ele>548</ele>
        <time>2011-11-18T15:17:41Z</time>
      </trkpt>
      <trkpt lat="46.05837" lon="3.70019">
        <ele>542</ele>
        <time>2011-11-18T15:17:41Z</time>
      </trkpt>
      <trkpt lat="46.05747" lon="3.69945">
        <ele>533</ele>
        <time>2011-11-18T15:17:41Z</time>
      </trkpt>
      <trkpt lat="46.05732" lon="3.6999">
        <ele>536</ele>
        <time>2011-11-18T15:17:41Z</time>
      </trkpt>
      <trkpt lat="46.05722" lon="3.70063">
        <ele>535</ele>
        <time>2011-11-18T15:17:41Z</time>
      </trkpt>
      <trkpt lat="46.05587" lon="3.70095">
        <ele>555</ele>
        <time>2011-11-18T15:17:41Z</time>
      </trkpt>
      <trkpt lat="46.05502" lon="3.70171">
        <ele>552</ele>
        <time>2011-11-18T15:17:41Z</time>
      </trkpt>
      <trkpt lat="46.05489" lon="3.7021">
        <ele>553</ele>
        <time>2011-11-18T15:17:41Z</time>
      </trkpt>
      <trkpt lat="46.05487" lon="3.7026">
        <ele>556</ele>
        <time>2011-11-18T15:17:41Z</time>
      </trkpt>
      <trkpt lat="46.05424" lon="3.70321">
        <ele>559</ele>
        <time>2011-11-18T15:17:41Z</time>
      </trkpt>
      <trkpt lat="46.05388" lon="3.70401">
        <ele>563</ele>
        <time>2011-11-18T15:17:41Z</time>
      </trkpt>
      <trkpt lat="46.05328" lon="3.70466">
        <ele>565</ele>
        <time>2011-11-18T15:17:41Z</time>
      </trkpt>
      <trkpt lat="46.05264" lon="3.70508">
        <ele>561</ele>
        <time>2011-11-18T15:17:41Z</time>
      </trkpt>
      <trkpt lat="46.05247" lon="3.70512">
        <ele>559</ele>
        <time>2011-11-18T15:17:41Z</time>
      </trkpt>
      <trkpt lat="46.05167" lon="3.70498">
        <ele>555</ele>
        <time>2011-11-18T15:17:41Z</time>
      </trkpt>
      <trkpt lat="46.05121" lon="3.7051">
        <ele>554</ele>
        <time>2011-11-18T15:17:41Z</time>
      </trkpt>
      <trkpt lat="46.05051" lon="3.70493">
        <ele>553</ele>
        <time>2011-11-18T15:17:41Z</time>
      </trkpt>
      <trkpt lat="46.05038" lon="3.70481">
        <ele>553</ele>
        <time>2011-11-18T15:17:41Z</time>
      </trkpt>
      <trkpt lat="46.04982" lon="3.70473">
        <ele>552</ele>
        <time>2011-11-18T15:17:41Z</time>
      </trkpt>
      <trkpt lat="46.04939" lon="3.70507">
        <ele>558</ele>
        <time>2011-11-18T15:17:41Z</time>
      </trkpt>
      <trkpt lat="46.04924" lon="3.70509">
        <ele>559</ele>
        <time>2011-11-18T15:17:41Z</time>
      </trkpt>
      <trkpt lat="46.04877" lon="3.7051">
        <ele>560</ele>
        <time>2011-11-18T15:17:41Z</time>
      </trkpt>
      <trkpt lat="46.04853" lon="3.70516">
        <ele>561</ele>
        <time>2011-11-18T15:17:41Z</time>
      </trkpt>
      <trkpt lat="46.04821" lon="3.70537">
        <ele>558</ele>
        <time>2011-11-18T15:17:41Z</time>
      </trkpt>
      <trkpt lat="46.04795" lon="3.70535">
        <ele>554</ele>
        <time>2011-11-18T15:17:41Z</time>
      </trkpt>
      <trkpt lat="46.04787" lon="3.70554">
        <ele>554</ele>
        <time>2011-11-18T15:17:41Z</time>
      </trkpt>
      <trkpt lat="46.04792" lon="3.70564">
        <ele>554</ele>
        <time>2011-11-18T15:17:41Z</time>
      </trkpt>
      <trkpt lat="46.04818" lon="3.70626">
        <ele>553</ele>
        <time>2011-11-18T15:17:41Z</time>
      </trkpt>
      <trkpt lat="46.0486" lon="3.7067">
        <ele>553</ele>
        <time>2011-11-18T15:17:41Z</time>
      </trkpt>
      <trkpt lat="46.04902" lon="3.70699">
        <ele>551</ele>
        <time>2011-11-18T15:17:41Z</time>
      </trkpt>
      <trkpt lat="46.04905" lon="3.70716">
        <ele>552</ele>
        <time>2011-11-18T15:17:41Z</time>
      </trkpt>
      <trkpt lat="46.04894" lon="3.70737">
        <ele>551</ele>
        <time>2011-11-18T15:17:41Z</time>
      </trkpt>
      <trkpt lat="46.04826" lon="3.70778">
        <ele>555</ele>
        <time>2011-11-18T15:17:41Z</time>
      </trkpt>
      <trkpt lat="46.04846" lon="3.70768">
        <ele>552</ele>
        <time>2011-11-18T15:17:41Z</time>
      </trkpt>
      <trkpt lat="46.04866" lon="3.7077">
        <ele>550</ele>
        <time>2011-11-18T15:17:41Z</time>
      </trkpt>
      <trkpt lat="46.04918" lon="3.7077">
        <ele>546</ele>
        <time>2011-11-18T15:17:41Z</time>
      </trkpt>
      <trkpt lat="46.04923" lon="3.70771">
        <ele>545</ele>
        <time>2011-11-18T15:17:41Z</time>
      </trkpt>
      <trkpt lat="46.05019" lon="3.70803">
        <ele>531</ele>
        <time>2011-11-18T15:17:41Z</time>
      </trkpt>
      <trkpt lat="46.05047" lon="3.70821">
        <ele>524</ele>
        <time>2011-11-18T15:17:41Z</time>
      </trkpt>
      <trkpt lat="46.05056" lon="3.70823">
        <ele>521</ele>
        <time>2011-11-18T15:17:41Z</time>
      </trkpt>
      <trkpt lat="46.05071" lon="3.70824">
        <ele>519</ele>
        <time>2011-11-18T15:17:41Z</time>
      </trkpt>
      <trkpt lat="46.051" lon="3.7084">
        <ele>512</ele>
        <time>2011-11-18T15:17:41Z</time>
      </trkpt>
      <trkpt lat="46.04963" lon="3.70925">
        <ele>514</ele>
        <time>2011-11-18T15:17:41Z</time>
      </trkpt>
      <trkpt lat="46.04921" lon="3.70981">
        <ele>515</ele>
        <time>2011-11-18T15:17:41Z</time>
      </trkpt>
      <trkpt lat="46.04879" lon="3.71015">
        <ele>516</ele>
        <time>2011-11-18T15:17:41Z</time>
      </trkpt>
      <trkpt lat="46.04857" lon="3.71051">
        <ele>515</ele>
        <time>2011-11-18T15:17:41Z</time>
      </trkpt>
      <trkpt lat="46.04848" lon="3.71068">
        <ele>516</ele>
        <time>2011-11-18T15:17:41Z</time>
      </trkpt>
      <trkpt lat="46.04754" lon="3.71174">
        <ele>517</ele>
        <time>2011-11-18T15:17:41Z</time>
      </trkpt>
      <trkpt lat="46.04736" lon="3.71224">
        <ele>521</ele>
        <time>2011-11-18T15:17:41Z</time>
      </trkpt>
      <trkpt lat="46.04707" lon="3.71242">
        <ele>526</ele>
        <time>2011-11-18T15:17:41Z</time>
      </trkpt>
      <trkpt lat="46.04667" lon="3.7125">
        <ele>534</ele>
        <time>2011-11-18T15:17:41Z</time>
      </trkpt>
      <trkpt lat="46.0466" lon="3.71189">
        <ele>541</ele>
        <time>2011-11-18T15:17:41Z</time>
      </trkpt>
      <trkpt lat="46.04646" lon="3.71171">
        <ele>545</ele>
        <time>2011-11-18T15:17:41Z</time>
      </trkpt>
      <trkpt lat="46.04612" lon="3.71164">
        <ele>550</ele>
        <time>2011-11-18T15:17:41Z</time>
      </trkpt>
      <trkpt lat="46.04568" lon="3.71203">
        <ele>559</ele>
        <time>2011-11-18T15:17:41Z</time>
      </trkpt>
      <trkpt lat="46.04527" lon="3.71227">
        <ele>563</ele>
        <time>2011-11-18T15:17:41Z</time>
      </trkpt>
      <trkpt lat="46.04495" lon="3.71235">
        <ele>567</ele>
        <time>2011-11-18T15:17:41Z</time>
      </trkpt>
      <trkpt lat="46.04469" lon="3.71238">
        <ele>570</ele>
        <time>2011-11-18T15:17:41Z</time>
      </trkpt>
      <trkpt lat="46.04405" lon="3.71276">
        <ele>576</ele>
        <time>2011-11-18T15:17:41Z</time>
      </trkpt>
      <trkpt lat="46.04377" lon="3.71282">
        <ele>578</ele>
        <time>2011-11-18T15:17:41Z</time>
      </trkpt>
      <trkpt lat="46.04316" lon="3.71268">
        <ele>581</ele>
        <time>2011-11-18T15:17:41Z</time>
      </trkpt>
      <trkpt lat="46.04248" lon="3.71407">
        <ele>575</ele>
        <time>2011-11-18T15:17:41Z</time>
      </trkpt>
      <trkpt lat="46.04194" lon="3.71497">
        <ele>571</ele>
        <time>2011-11-18T15:17:41Z</time>
      </trkpt>
      <trkpt lat="46.04179" lon="3.71536">
        <ele>568</ele>
        <time>2011-11-18T15:17:41Z</time>
      </trkpt>
      <trkpt lat="46.04163" lon="3.71578">
        <ele>564</ele>
        <time>2011-11-18T15:17:41Z</time>
      </trkpt>
      <trkpt lat="46.04122" lon="3.71624">
        <ele>561</ele>
        <time>2011-11-18T15:17:41Z</time>
      </trkpt>
      <trkpt lat="46.04096" lon="3.71655">
        <ele>566</ele>
        <time>2011-11-18T15:17:41Z</time>
      </trkpt>
      <trkpt lat="46.0409" lon="3.71683">
        <ele>570</ele>
        <time>2011-11-18T15:17:41Z</time>
      </trkpt>
      <trkpt lat="46.04082" lon="3.71691">
        <ele>571</ele>
        <time>2011-11-18T15:17:41Z</time>
      </trkpt>
      <trkpt lat="46.04044" lon="3.71713">
        <ele>579</ele>
        <time>2011-11-18T15:17:41Z</time>
      </trkpt>
      <trkpt lat="46.04021" lon="3.71738">
        <ele>584</ele>
        <time>2011-11-18T15:17:41Z</time>
      </trkpt>
      <trkpt lat="46.03969" lon="3.71851">
        <ele>594</ele>
        <time>2011-11-18T15:17:41Z</time>
      </trkpt>
      <trkpt lat="46.03921" lon="3.71916">
        <ele>596</ele>
        <time>2011-11-18T15:17:41Z</time>
      </trkpt>
      <trkpt lat="46.03866" lon="3.71971">
        <ele>595</ele>
        <time>2011-11-18T15:17:41Z</time>
      </trkpt>
      <trkpt lat="46.03827" lon="3.71992">
        <ele>595</ele>
        <time>2011-11-18T15:17:41Z</time>
      </trkpt>
      <trkpt lat="46.03731" lon="3.72016">
        <ele>595</ele>
        <time>2011-11-18T15:17:41Z</time>
      </trkpt>
      <trkpt lat="46.03619" lon="3.72015">
        <ele>589</ele>
        <time>2011-11-18T15:17:41Z</time>
      </trkpt>
      <trkpt lat="46.03535" lon="3.72056">
        <ele>586</ele>
        <time>2011-11-18T15:17:41Z</time>
      </trkpt>
      <trkpt lat="46.0352" lon="3.72073">
        <ele>586</ele>
        <time>2011-11-18T15:17:41Z</time>
      </trkpt>
      <trkpt lat="46.0351" lon="3.72102">
        <ele>586</ele>
        <time>2011-11-18T15:17:41Z</time>
      </trkpt>
      <trkpt lat="46.0346" lon="3.72157">
        <ele>587</ele>
        <time>2011-11-18T15:17:41Z</time>
      </trkpt>
      <trkpt lat="46.03429" lon="3.72205">
        <ele>588</ele>
        <time>2011-11-18T15:17:41Z</time>
      </trkpt>
      <trkpt lat="46.03375" lon="3.72302">
        <ele>588</ele>
        <time>2011-11-18T15:17:41Z</time>
      </trkpt>
      <trkpt lat="46.03356" lon="3.72344">
        <ele>588</ele>
        <time>2011-11-18T15:17:41Z</time>
      </trkpt>
      <trkpt lat="46.03348" lon="3.72371">
        <ele>587</ele>
        <time>2011-11-18T15:17:41Z</time>
      </trkpt>
      <trkpt lat="46.03326" lon="3.72397">
        <ele>585</ele>
        <time>2011-11-18T15:17:41Z</time>
      </trkpt>
      <trkpt lat="46.03272" lon="3.72389">
        <ele>578</ele>
        <time>2011-11-18T15:17:41Z</time>
      </trkpt>
      <trkpt lat="46.03256" lon="3.72399">
        <ele>575</ele>
        <time>2011-11-18T15:17:41Z</time>
      </trkpt>
      <trkpt lat="46.03242" lon="3.72439">
        <ele>570</ele>
        <time>2011-11-18T15:17:41Z</time>
      </trkpt>
      <trkpt lat="46.03236" lon="3.72485">
        <ele>566</ele>
        <time>2011-11-18T15:17:41Z</time>
      </trkpt>
      <trkpt lat="46.03243" lon="3.72557">
        <ele>560</ele>
        <time>2011-11-18T15:17:41Z</time>
      </trkpt>
      <trkpt lat="46.0324" lon="3.7258">
        <ele>559</ele>
        <time>2011-11-18T15:17:41Z</time>
      </trkpt>
      <trkpt lat="46.03227" lon="3.7261">
        <ele>555</ele>
        <time>2011-11-18T15:17:41Z</time>
      </trkpt>
      <trkpt lat="46.03221" lon="3.7263">
        <ele>553</ele>
        <time>2011-11-18T15:17:41Z</time>
      </trkpt>
      <trkpt lat="46.03207" lon="3.72648">
        <ele>550</ele>
        <time>2011-11-18T15:17:41Z</time>
      </trkpt>
      <trkpt lat="46.0319" lon="3.72597">
        <ele>544</ele>
        <time>2011-11-18T15:17:41Z</time>
      </trkpt>
      <trkpt lat="46.03178" lon="3.7259">
        <ele>541</ele>
        <time>2011-11-18T15:17:41Z</time>
      </trkpt>
      <trkpt lat="46.03157" lon="3.72654">
        <ele>535</ele>
        <time>2011-11-18T15:17:41Z</time>
      </trkpt>
      <trkpt lat="46.03144" lon="3.72692">
        <ele>533</ele>
        <time>2011-11-18T15:17:41Z</time>
      </trkpt>
      <trkpt lat="46.03128" lon="3.72784">
        <ele>534</ele>
        <time>2011-11-18T15:17:41Z</time>
      </trkpt>
      <trkpt lat="46.03104" lon="3.72792">
        <ele>538</ele>
        <time>2011-11-18T15:17:41Z</time>
      </trkpt>
      <trkpt lat="46.0303" lon="3.72792">
        <ele>542</ele>
        <time>2011-11-18T15:17:41Z</time>
      </trkpt>
      <trkpt lat="46.03" lon="3.72788">
        <ele>544</ele>
        <time>2011-11-18T15:17:41Z</time>
      </trkpt>
      <trkpt lat="46.02945" lon="3.7277">
        <ele>551</ele>
        <time>2011-11-18T15:17:41Z</time>
      </trkpt>
      <trkpt lat="46.02948" lon="3.72819">
        <ele>560</ele>
        <time>2011-11-18T15:17:41Z</time>
      </trkpt>
      <trkpt lat="46.02924" lon="3.72839">
        <ele>566</ele>
        <time>2011-11-18T15:17:41Z</time>
      </trkpt>
      <trkpt lat="46.02895" lon="3.72854">
        <ele>571</ele>
        <time>2011-11-18T15:17:41Z</time>
      </trkpt>
      <trkpt lat="46.0283" lon="3.72854">
        <ele>581</ele>
        <time>2011-11-18T15:17:41Z</time>
      </trkpt>
      <trkpt lat="46.02821" lon="3.72918">
        <ele>590</ele>
        <time>2011-11-18T15:17:41Z</time>
      </trkpt>
      <trkpt lat="46.0281" lon="3.72949">
        <ele>593</ele>
        <time>2011-11-18T15:17:41Z</time>
      </trkpt>
      <trkpt lat="46.02766" lon="3.73001">
        <ele>598</ele>
        <time>2011-11-18T15:17:41Z</time>
      </trkpt>
      <trkpt lat="46.02743" lon="3.73051">
        <ele>600</ele>
        <time>2011-11-18T15:17:41Z</time>
      </trkpt>
      <trkpt lat="46.02766" lon="3.73163">
        <ele>593</ele>
        <time>2011-11-18T15:17:41Z</time>
      </trkpt>
      <trkpt lat="46.02838" lon="3.73292">
        <ele>582</ele>
        <time>2011-11-18T15:17:41Z</time>
      </trkpt>
      <trkpt lat="46.02867" lon="3.73341">
        <ele>578</ele>
        <time>2011-11-18T15:17:41Z</time>
      </trkpt>
      <trkpt lat="46.02874" lon="3.73369">
        <ele>578</ele>
        <time>2011-11-18T15:17:41Z</time>
      </trkpt>
      <trkpt lat="46.0286" lon="3.73418">
        <ele>578</ele>
        <time>2011-11-18T15:17:41Z</time>
      </trkpt>
      <trkpt lat="46.02859" lon="3.73493">
        <ele>574</ele>
        <time>2011-11-18T15:17:41Z</time>
      </trkpt>
      <trkpt lat="46.02882" lon="3.73571">
        <ele>568</ele>
        <time>2011-11-18T15:17:41Z</time>
      </trkpt>
      <trkpt lat="46.02907" lon="3.73612">
        <ele>563</ele>
        <time>2011-11-18T15:17:41Z</time>
      </trkpt>
      <trkpt lat="46.02961" lon="3.73653">
        <ele>552</ele>
        <time>2011-11-18T15:17:41Z</time>
      </trkpt>
      <trkpt lat="46.02982" lon="3.73672">
        <ele>549</ele>
        <time>2011-11-18T15:17:41Z</time>
      </trkpt>
      <trkpt lat="46.02998" lon="3.7368">
        <ele>546</ele>
        <time>2011-11-18T15:17:41Z</time>
      </trkpt>
      <trkpt lat="46.03059" lon="3.73683">
        <ele>539</ele>
        <time>2011-11-18T15:17:41Z</time>
      </trkpt>
      <trkpt lat="46.03085" lon="3.73712">
        <ele>536</ele>
        <time>2011-11-18T15:17:41Z</time>
      </trkpt>
      <trkpt lat="46.03132" lon="3.7375">
        <ele>533</ele>
        <time>2011-11-18T15:17:41Z</time>
      </trkpt>
      <trkpt lat="46.03202" lon="3.73796">
        <ele>530</ele>
        <time>2011-11-18T15:17:41Z</time>
      </trkpt>
      <trkpt lat="46.03226" lon="3.73815">
        <ele>530</ele>
        <time>2011-11-18T15:17:41Z</time>
      </trkpt>
      <trkpt lat="46.03247" lon="3.73817">
        <ele>531</ele>
        <time>2011-11-18T15:17:41Z</time>
      </trkpt>
      <trkpt lat="46.03268" lon="3.73806">
        <ele>532</ele>
        <time>2011-11-18T15:17:41Z</time>
      </trkpt>
      <trkpt lat="46.03305" lon="3.73764">
        <ele>535</ele>
        <time>2011-11-18T15:17:41Z</time>
      </trkpt>
      <trkpt lat="46.03325" lon="3.7375">
        <ele>536</ele>
        <time>2011-11-18T15:17:41Z</time>
      </trkpt>
      <trkpt lat="46.03287" lon="3.73824">
        <ele>543</ele>
        <time>2011-11-18T15:17:41Z</time>
      </trkpt>
      <trkpt lat="46.03247" lon="3.7386">
        <ele>548</ele>
        <time>2011-11-18T15:17:41Z</time>
      </trkpt>
      <trkpt lat="46.03221" lon="3.73894">
        <ele>551</ele>
        <time>2011-11-18T15:17:41Z</time>
      </trkpt>
      <trkpt lat="46.0318" lon="3.7397">
        <ele>557</ele>
        <time>2011-11-18T15:17:41Z</time>
      </trkpt>
      <trkpt lat="46.03182" lon="3.74055">
        <ele>563</ele>
        <time>2011-11-18T15:17:41Z</time>
      </trkpt>
      <trkpt lat="46.03175" lon="3.74067">
        <ele>564</ele>
        <time>2011-11-18T15:17:41Z</time>
      </trkpt>
      <trkpt lat="46.03137" lon="3.74068">
        <ele>568</ele>
        <time>2011-11-18T15:17:41Z</time>
      </trkpt>
      <trkpt lat="46.03118" lon="3.74088">
        <ele>572</ele>
        <time>2011-11-18T15:17:41Z</time>
      </trkpt>
      <trkpt lat="46.03092" lon="3.74135">
        <ele>574</ele>
        <time>2011-11-18T15:17:41Z</time>
      </trkpt>
      <trkpt lat="46.03075" lon="3.74186">
        <ele>577</ele>
        <time>2011-11-18T15:17:41Z</time>
      </trkpt>
      <trkpt lat="46.03045" lon="3.74203">
        <ele>581</ele>
        <time>2011-11-18T15:17:41Z</time>
      </trkpt>
      <trkpt lat="46.03029" lon="3.74204">
        <ele>582</ele>
        <time>2011-11-18T15:17:41Z</time>
      </trkpt>
      <trkpt lat="46.02987" lon="3.74181">
        <ele>587</ele>
        <time>2011-11-18T15:17:41Z</time>
      </trkpt>
      <trkpt lat="46.02876" lon="3.74221">
        <ele>597</ele>
        <time>2011-11-18T15:17:41Z</time>
      </trkpt>
      <trkpt lat="46.02826" lon="3.74278">
        <ele>602</ele>
        <time>2011-11-18T15:17:41Z</time>
      </trkpt>
      <trkpt lat="46.02816" lon="3.74312">
        <ele>604</ele>
        <time>2011-11-18T15:17:41Z</time>
      </trkpt>
      <trkpt lat="46.02817" lon="3.74381">
        <ele>607</ele>
        <time>2011-11-18T15:17:41Z</time>
      </trkpt>
      <trkpt lat="46.0281" lon="3.74395">
        <ele>609</ele>
        <time>2011-11-18T15:17:41Z</time>
      </trkpt>
      <trkpt lat="46.02794" lon="3.74395">
        <ele>611</ele>
        <time>2011-11-18T15:17:41Z</time>
      </trkpt>
      <trkpt lat="46.02763" lon="3.74395">
        <ele>614</ele>
        <time>2011-11-18T15:17:41Z</time>
      </trkpt>
      <trkpt lat="46.02733" lon="3.7441">
        <ele>616</ele>
        <time>2011-11-18T15:17:41Z</time>
      </trkpt>
      <trkpt lat="46.02629" lon="3.7452">
        <ele>626</ele>
        <time>2011-11-18T15:17:41Z</time>
      </trkpt>
      <trkpt lat="46.02544" lon="3.74594">
        <ele>633</ele>
        <time>2011-11-18T15:17:41Z</time>
      </trkpt>
      <trkpt lat="46.02528" lon="3.74632">
        <ele>635</ele>
        <time>2011-11-18T15:17:41Z</time>
      </trkpt>
      <trkpt lat="46.02517" lon="3.74806">
        <ele>645</ele>
        <time>2011-11-18T15:17:41Z</time>
      </trkpt>
      <trkpt lat="46.02442" lon="3.74991">
        <ele>655</ele>
        <time>2011-11-18T15:17:41Z</time>
      </trkpt>
      <trkpt lat="46.02434" lon="3.75062">
        <ele>658</ele>
        <time>2011-11-18T15:17:41Z</time>
      </trkpt>
      <trkpt lat="46.02418" lon="3.75099">
        <ele>660</ele>
        <time>2011-11-18T15:17:41Z</time>
      </trkpt>
      <trkpt lat="46.02377" lon="3.75144">
        <ele>667</ele>
        <time>2011-11-18T15:17:41Z</time>
      </trkpt>
      <trkpt lat="46.02213" lon="3.75221">
        <ele>680</ele>
        <time>2011-11-18T15:17:41Z</time>
      </trkpt>
      <trkpt lat="46.02209" lon="3.75292">
        <ele>682</ele>
        <time>2011-11-18T15:17:41Z</time>
      </trkpt>
      <trkpt lat="46.02214" lon="3.75319">
        <ele>684</ele>
        <time>2011-11-18T15:17:41Z</time>
      </trkpt>
      <trkpt lat="46.02231" lon="3.75357">
        <ele>686</ele>
        <time>2011-11-18T15:17:41Z</time>
      </trkpt>
      <trkpt lat="46.02264" lon="3.75404">
        <ele>689</ele>
        <time>2011-11-18T15:17:41Z</time>
      </trkpt>
      <trkpt lat="46.02289" lon="3.75418">
        <ele>691</ele>
        <time>2011-11-18T15:17:41Z</time>
      </trkpt>
      <trkpt lat="46.02314" lon="3.75418">
        <ele>694</ele>
        <time>2011-11-18T15:17:41Z</time>
      </trkpt>
      <trkpt lat="46.02337" lon="3.75429">
        <ele>696</ele>
        <time>2011-11-18T15:17:41Z</time>
      </trkpt>
      <trkpt lat="46.02408" lon="3.75489">
        <ele>704</ele>
        <time>2011-11-18T15:17:41Z</time>
      </trkpt>
      <trkpt lat="46.02441" lon="3.75521">
        <ele>712</ele>
        <time>2011-11-18T15:17:41Z</time>
      </trkpt>
      <trkpt lat="46.02477" lon="3.7557">
        <ele>718</ele>
        <time>2011-11-18T15:17:41Z</time>
      </trkpt>
      <trkpt lat="46.02486" lon="3.75582">
        <ele>720</ele>
        <time>2011-11-18T15:17:41Z</time>
      </trkpt>
      <trkpt lat="46.02527" lon="3.75655">
        <ele>732</ele>
        <time>2011-11-18T15:17:41Z</time>
      </trkpt>
      <trkpt lat="46.02528" lon="3.7566">
        <ele>732</ele>
        <time>2011-11-18T15:17:41Z</time>
      </trkpt>
      <trkpt lat="46.02583" lon="3.75732">
        <ele>737</ele>
        <time>2011-11-18T15:17:41Z</time>
      </trkpt>
      <trkpt lat="46.02623" lon="3.75772">
        <ele>736</ele>
        <time>2011-11-18T15:17:41Z</time>
      </trkpt>
      <trkpt lat="46.02656" lon="3.75807">
        <ele>734</ele>
        <time>2011-11-18T15:17:41Z</time>
      </trkpt>
      <trkpt lat="46.02806" lon="3.76003">
        <ele>736</ele>
        <time>2011-11-18T15:17:41Z</time>
      </trkpt>
      <trkpt lat="46.02827" lon="3.76076">
        <ele>739</ele>
        <time>2011-11-18T15:17:41Z</time>
      </trkpt>
      <trkpt lat="46.02826" lon="3.76128">
        <ele>741</ele>
        <time>2011-11-18T15:17:41Z</time>
      </trkpt>
      <trkpt lat="46.02817" lon="3.76212">
        <ele>738</ele>
        <time>2011-11-18T15:17:41Z</time>
      </trkpt>
      <trkpt lat="46.02831" lon="3.76318">
        <ele>741</ele>
        <time>2011-11-18T15:17:41Z</time>
      </trkpt>
      <trkpt lat="46.0284" lon="3.7633">
        <ele>742</ele>
        <time>2011-11-18T15:17:41Z</time>
      </trkpt>
      <trkpt lat="46.02904" lon="3.76346">
        <ele>734</ele>
        <time>2011-11-18T15:17:41Z</time>
      </trkpt>
      <trkpt lat="46.02926" lon="3.76364">
        <ele>732</ele>
        <time>2011-11-18T15:17:41Z</time>
      </trkpt>
      <trkpt lat="46.02947" lon="3.7637">
        <ele>729</ele>
        <time>2011-11-18T15:17:41Z</time>
      </trkpt>
      <trkpt lat="46.02984" lon="3.76407">
        <ele>725</ele>
        <time>2011-11-18T15:17:41Z</time>
      </trkpt>
      <trkpt lat="46.02995" lon="3.76411">
        <ele>723</ele>
        <time>2011-11-18T15:17:41Z</time>
      </trkpt>
      <trkpt lat="46.0303" lon="3.76407">
        <ele>715</ele>
        <time>2011-11-18T15:17:41Z</time>
      </trkpt>
      <trkpt lat="46.0305" lon="3.76391">
        <ele>711</ele>
        <time>2011-11-18T15:17:41Z</time>
      </trkpt>
      <trkpt lat="46.03077" lon="3.76374">
        <ele>705</ele>
        <time>2011-11-18T15:17:41Z</time>
      </trkpt>
      <trkpt lat="46.03119" lon="3.76333">
        <ele>697</ele>
        <time>2011-11-18T15:17:41Z</time>
      </trkpt>
      <trkpt lat="46.03143" lon="3.76323">
        <ele>691</ele>
        <time>2011-11-18T15:17:41Z</time>
      </trkpt>
      <trkpt lat="46.03166" lon="3.76311">
        <ele>687</ele>
        <time>2011-11-18T15:17:41Z</time>
      </trkpt>
      <trkpt lat="46.03217" lon="3.76314">
        <ele>677</ele>
        <time>2011-11-18T15:17:41Z</time>
      </trkpt>
      <trkpt lat="46.03231" lon="3.76303">
        <ele>674</ele>
        <time>2011-11-18T15:17:41Z</time>
      </trkpt>
      <trkpt lat="46.03246" lon="3.76281">
        <ele>671</ele>
        <time>2011-11-18T15:17:41Z</time>
      </trkpt>
      <trkpt lat="46.03262" lon="3.76233">
        <ele>666</ele>
        <time>2011-11-18T15:17:41Z</time>
      </trkpt>
      <trkpt lat="46.03262" lon="3.76184">
        <ele>661</ele>
        <time>2011-11-18T15:17:41Z</time>
      </trkpt>
      <trkpt lat="46.03289" lon="3.76187">
        <ele>659</ele>
        <time>2011-11-18T15:17:41Z</time>
      </trkpt>
      <trkpt lat="46.03311" lon="3.76179">
        <ele>656</ele>
        <time>2011-11-18T15:17:41Z</time>
      </trkpt>
      <trkpt lat="46.03384" lon="3.76117">
        <ele>640</ele>
        <time>2011-11-18T15:17:41Z</time>
      </trkpt>
      <trkpt lat="46.03403" lon="3.76098">
        <ele>636</ele>
        <time>2011-11-18T15:17:41Z</time>
      </trkpt>
      <trkpt lat="46.03419" lon="3.76123">
        <ele>633</ele>
        <time>2011-11-18T15:17:41Z</time>
      </trkpt>
      <trkpt lat="46.03433" lon="3.76277">
        <ele>637</ele>
        <time>2011-11-18T15:17:41Z</time>
      </trkpt>
      <trkpt lat="46.03441" lon="3.76335">
        <ele>638</ele>
        <time>2011-11-18T15:17:41Z</time>
      </trkpt>
      <trkpt lat="46.0349" lon="3.76381">
        <ele>631</ele>
        <time>2011-11-18T15:17:41Z</time>
      </trkpt>
      <trkpt lat="46.03473" lon="3.76394">
        <ele>630</ele>
        <time>2011-11-18T15:17:41Z</time>
      </trkpt>
      <trkpt lat="46.03448" lon="3.76396">
        <ele>626</ele>
        <time>2011-11-18T15:17:41Z</time>
      </trkpt>
      <trkpt lat="46.03447" lon="3.76414">
        <ele>626</ele>
        <time>2011-11-18T15:17:41Z</time>
      </trkpt>
      <trkpt lat="46.03465" lon="3.76443">
        <ele>627</ele>
        <time>2011-11-18T15:17:41Z</time>
      </trkpt>
      <trkpt lat="46.03496" lon="3.76502">
        <ele>629</ele>
        <time>2011-11-18T15:17:41Z</time>
      </trkpt>
      <trkpt lat="46.03513" lon="3.76513">
        <ele>629</ele>
        <time>2011-11-18T15:17:41Z</time>
      </trkpt>
      <trkpt lat="46.03543" lon="3.76516">
        <ele>635</ele>
        <time>2011-11-18T15:17:41Z</time>
      </trkpt>
      <trkpt lat="46.0357" lon="3.76537">
        <ele>640</ele>
        <time>2011-11-18T15:17:41Z</time>
      </trkpt>
      <trkpt lat="46.03598" lon="3.76535">
        <ele>641</ele>
        <time>2011-11-18T15:17:41Z</time>
      </trkpt>
      <trkpt lat="46.03652" lon="3.76556">
        <ele>651</ele>
        <time>2011-11-18T15:17:41Z</time>
      </trkpt>
      <trkpt lat="46.03718" lon="3.76611">
        <ele>666</ele>
        <time>2011-11-18T15:17:41Z</time>
      </trkpt>
      <trkpt lat="46.03777" lon="3.7668">
        <ele>673</ele>
        <time>2011-11-18T15:17:41Z</time>
      </trkpt>
      <trkpt lat="46.03927" lon="3.76795">
        <ele>696</ele>
        <time>2011-11-18T15:17:41Z</time>
      </trkpt>
      <trkpt lat="46.03991" lon="3.76835">
        <ele>708</ele>
        <time>2011-11-18T15:17:41Z</time>
      </trkpt>
      <trkpt lat="46.04015" lon="3.76841">
        <ele>711</ele>
        <time>2011-11-18T15:17:41Z</time>
      </trkpt>
      <trkpt lat="46.04044" lon="3.76803">
        <ele>712</ele>
        <time>2011-11-18T15:17:41Z</time>
      </trkpt>
      <trkpt lat="46.04073" lon="3.76795">
        <ele>706</ele>
        <time>2011-11-18T15:17:41Z</time>
      </trkpt>
      <trkpt lat="46.04098" lon="3.76773">
        <ele>700</ele>
        <time>2011-11-18T15:17:41Z</time>
      </trkpt>
      <trkpt lat="46.04109" lon="3.76755">
        <ele>697</ele>
        <time>2011-11-18T15:17:41Z</time>
      </trkpt>
      <trkpt lat="46.04121" lon="3.76749">
        <ele>693</ele>
        <time>2011-11-18T15:17:41Z</time>
      </trkpt>
      <trkpt lat="46.04127" lon="3.76756">
        <ele>692</ele>
        <time>2011-11-18T15:17:41Z</time>
      </trkpt>
      <trkpt lat="46.04138" lon="3.7681">
        <ele>684</ele>
        <time>2011-11-18T15:17:41Z</time>
      </trkpt>
      <trkpt lat="46.04155" lon="3.76864">
        <ele>676</ele>
        <time>2011-11-18T15:17:41Z</time>
      </trkpt>
      <trkpt lat="46.04174" lon="3.76907">
        <ele>673</ele>
        <time>2011-11-18T15:17:41Z</time>
      </trkpt>
      <trkpt lat="46.04178" lon="3.7693">
        <ele>671</ele>
        <time>2011-11-18T15:17:41Z</time>
      </trkpt>
      <trkpt lat="46.04173" lon="3.76965">
        <ele>668</ele>
        <time>2011-11-18T15:17:41Z</time>
      </trkpt>
      <trkpt lat="46.04171" lon="3.76973">
        <ele>667</ele>
        <time>2011-11-18T15:17:41Z</time>
      </trkpt>
      <trkpt lat="46.04153" lon="3.77009">
        <ele>662</ele>
        <time>2011-11-18T15:17:41Z</time>
      </trkpt>
      <trkpt lat="46.0415" lon="3.7703">
        <ele>660</ele>
        <time>2011-11-18T15:17:41Z</time>
      </trkpt>
      <trkpt lat="46.04205" lon="3.77036">
        <ele>666</ele>
        <time>2011-11-18T15:17:41Z</time>
      </trkpt>
      <trkpt lat="46.04234" lon="3.77031">
        <ele>672</ele>
        <time>2011-11-18T15:17:41Z</time>
      </trkpt>
      <trkpt lat="46.04267" lon="3.77024">
        <ele>680</ele>
        <time>2011-11-18T15:17:41Z</time>
      </trkpt>
      <trkpt lat="46.04289" lon="3.7701">
        <ele>684</ele>
        <time>2011-11-18T15:17:41Z</time>
      </trkpt>
      <trkpt lat="46.04328" lon="3.76973">
        <ele>695</ele>
        <time>2011-11-18T15:17:41Z</time>
      </trkpt>
      <trkpt lat="46.04391" lon="3.76889">
        <ele>711</ele>
        <time>2011-11-18T15:17:41Z</time>
      </trkpt>
      <trkpt lat="46.04417" lon="3.76869">
        <ele>715</ele>
        <time>2011-11-18T15:17:41Z</time>
      </trkpt>
      <trkpt lat="46.04442" lon="3.76862">
        <ele>722</ele>
        <time>2011-11-18T15:17:41Z</time>
      </trkpt>
      <trkpt lat="46.04478" lon="3.76893">
        <ele>728</ele>
        <time>2011-11-18T15:17:41Z</time>
      </trkpt>
      <trkpt lat="46.04569" lon="3.77001">
        <ele>745</ele>
        <time>2011-11-18T15:17:41Z</time>
      </trkpt>
      <trkpt lat="46.04588" lon="3.77016">
        <ele>748</ele>
        <time>2011-11-18T15:17:41Z</time>
      </trkpt>
      <trkpt lat="46.0472" lon="3.77049">
        <ele>748</ele>
        <time>2011-11-18T15:17:41Z</time>
      </trkpt>
      <trkpt lat="46.04777" lon="3.77022">
        <ele>753</ele>
        <time>2011-11-18T15:17:41Z</time>
      </trkpt>
      <trkpt lat="46.04839" lon="3.76905">
        <ele>766</ele>
        <time>2011-11-18T15:17:41Z</time>
      </trkpt>
      <trkpt lat="46.04878" lon="3.76876">
        <ele>771</ele>
        <time>2011-11-18T15:17:41Z</time>
      </trkpt>
      <trkpt lat="46.04895" lon="3.76884">
        <ele>772</ele>
        <time>2011-11-18T15:17:41Z</time>
      </trkpt>
      <trkpt lat="46.04914" lon="3.7691">
        <ele>774</ele>
        <time>2011-11-18T15:17:41Z</time>
      </trkpt>
      <trkpt lat="46.04952" lon="3.76905">
        <ele>777</ele>
        <time>2011-11-18T15:17:41Z</time>
      </trkpt>
      <trkpt lat="46.05003" lon="3.76899">
        <ele>784</ele>
        <time>2011-11-18T15:17:41Z</time>
      </trkpt>
      <trkpt lat="46.05066" lon="3.76857">
        <ele>801</ele>
        <time>2011-11-18T15:17:41Z</time>
      </trkpt>
      <trkpt lat="46.05075" lon="3.76865">
        <ele>804</ele>
        <time>2011-11-18T15:17:41Z</time>
      </trkpt>
      <trkpt lat="46.05077" lon="3.76888">
        <ele>810</ele>
        <time>2011-11-18T15:17:41Z</time>
      </trkpt>
      <trkpt lat="46.05084" lon="3.76916">
        <ele>816</ele>
        <time>2011-11-18T15:17:41Z</time>
      </trkpt>
      <trkpt lat="46.05092" lon="3.77003">
        <ele>827</ele>
        <time>2011-11-18T15:17:41Z</time>
      </trkpt>
      <trkpt lat="46.05107" lon="3.77051">
        <ele>834</ele>
        <time>2011-11-18T15:17:41Z</time>
      </trkpt>
      <trkpt lat="46.05167" lon="3.77163">
        <ele>850</ele>
        <time>2011-11-18T15:17:41Z</time>
      </trkpt>
      <trkpt lat="46.05329" lon="3.77362">
        <ele>886</ele>
        <time>2011-11-18T15:17:41Z</time>
      </trkpt>
      <trkpt lat="46.05376" lon="3.77432">
        <ele>894</ele>
        <time>2011-11-18T15:17:41Z</time>
      </trkpt>
      <trkpt lat="46.05394" lon="3.77481">
        <ele>897</ele>
        <time>2011-11-18T15:17:41Z</time>
      </trkpt>
      <trkpt lat="46.05417" lon="3.77569">
        <ele>900</ele>
        <time>2011-11-18T15:17:41Z</time>
      </trkpt>
      <trkpt lat="46.05421" lon="3.77573">
        <ele>899</ele>
        <time>2011-11-18T15:17:41Z</time>
      </trkpt>
      <trkpt lat="46.05426" lon="3.77566">
        <ele>899</ele>
        <time>2011-11-18T15:17:41Z</time>
      </trkpt>
      <trkpt lat="46.05444" lon="3.77522">
        <ele>899</ele>
        <time>2011-11-18T15:17:41Z</time>
      </trkpt>
      <trkpt lat="46.05479" lon="3.7747">
        <ele>897</ele>
        <time>2011-11-18T15:17:41Z</time>
      </trkpt>
      <trkpt lat="46.05537" lon="3.77402">
        <ele>891</ele>
        <time>2011-11-18T15:17:41Z</time>
      </trkpt>
      <trkpt lat="46.05572" lon="3.7733">
        <ele>888</ele>
        <time>2011-11-18T15:17:41Z</time>
      </trkpt>
      <trkpt lat="46.05584" lon="3.77286">
        <ele>887</ele>
        <time>2011-11-18T15:17:41Z</time>
      </trkpt>
      <trkpt lat="46.05611" lon="3.77221">
        <ele>885</ele>
        <time>2011-11-18T15:17:41Z</time>
      </trkpt>
      <trkpt lat="46.05671" lon="3.77147">
        <ele>879</ele>
        <time>2011-11-18T15:17:41Z</time>
      </trkpt>
      <trkpt lat="46.05741" lon="3.77022">
        <ele>869</ele>
        <time>2011-11-18T15:17:41Z</time>
      </trkpt>
      <trkpt lat="46.05752" lon="3.76991">
        <ele>866</ele>
        <time>2011-11-18T15:17:41Z</time>
      </trkpt>
      <trkpt lat="46.05773" lon="3.76963">
        <ele>862</ele>
        <time>2011-11-18T15:17:41Z</time>
      </trkpt>
      <trkpt lat="46.05785" lon="3.76955">
        <ele>861</ele>
        <time>2011-11-18T15:17:41Z</time>
      </trkpt>
      <trkpt lat="46.05811" lon="3.76956">
        <ele>859</ele>
        <time>2011-11-18T15:17:41Z</time>
      </trkpt>
      <trkpt lat="46.05817" lon="3.76941">
        <ele>858</ele>
        <time>2011-11-18T15:17:41Z</time>
      </trkpt>
      <trkpt lat="46.05739" lon="3.76843">
        <ele>850</ele>
        <time>2011-11-18T15:17:41Z</time>
      </trkpt>
      <trkpt lat="46.05706" lon="3.76765">
        <ele>847</ele>
        <time>2011-11-18T15:17:41Z</time>
      </trkpt>
      <trkpt lat="46.05732" lon="3.76572">
        <ele>846</ele>
        <time>2011-11-18T15:17:41Z</time>
      </trkpt>
      <trkpt lat="46.05741" lon="3.76541">
        <ele>845</ele>
        <time>2011-11-18T15:17:41Z</time>
      </trkpt>
      <trkpt lat="46.0574" lon="3.76469">
        <ele>842</ele>
        <time>2011-11-18T15:17:41Z</time>
      </trkpt>
      <trkpt lat="46.05727" lon="3.76354">
        <ele>836</ele>
        <time>2011-11-18T15:17:41Z</time>
      </trkpt>
      <trkpt lat="46.05716" lon="3.76248">
        <ele>838</ele>
        <time>2011-11-18T15:17:41Z</time>
      </trkpt>
      <trkpt lat="46.0572" lon="3.76231">
        <ele>838</ele>
        <time>2011-11-18T15:17:41Z</time>
      </trkpt>
      <trkpt lat="46.05779" lon="3.76054">
        <ele>843</ele>
        <time>2011-11-18T15:17:41Z</time>
      </trkpt>
      <trkpt lat="46.05793" lon="3.75966">
        <ele>847</ele>
        <time>2011-11-18T15:17:41Z</time>
      </trkpt>
      <trkpt lat="46.05822" lon="3.75871">
        <ele>847</ele>
        <time>2011-11-18T15:17:41Z</time>
      </trkpt>
      <trkpt lat="46.05869" lon="3.75717">
        <ele>842</ele>
        <time>2011-11-18T15:17:41Z</time>
      </trkpt>
      <trkpt lat="46.05869" lon="3.7568">
        <ele>841</ele>
        <time>2011-11-18T15:17:41Z</time>
      </trkpt>
      <trkpt lat="46.05887" lon="3.75577">
        <ele>840</ele>
        <time>2011-11-18T15:17:41Z</time>
      </trkpt>
      <trkpt lat="46.05935" lon="3.7557">
        <ele>841</ele>
        <time>2011-11-18T15:17:41Z</time>
      </trkpt>
      <trkpt lat="46.05957" lon="3.75562">
        <ele>842</ele>
        <time>2011-11-18T15:17:41Z</time>
      </trkpt>
      <trkpt lat="46.05984" lon="3.75507">
        <ele>844</ele>
        <time>2011-11-18T15:17:41Z</time>
      </trkpt>
      <trkpt lat="46.05987" lon="3.75467">
        <ele>845</ele>
        <time>2011-11-18T15:17:41Z</time>
      </trkpt>
      <trkpt lat="46.05984" lon="3.75317">
        <ele>850</ele>
        <time>2011-11-18T15:17:41Z</time>
      </trkpt>
      <trkpt lat="46.05962" lon="3.7521">
        <ele>855</ele>
        <time>2011-11-18T15:17:41Z</time>
      </trkpt>
      <trkpt lat="46.0596" lon="3.75137">
        <ele>857</ele>
        <time>2011-11-18T15:17:41Z</time>
      </trkpt>
      <trkpt lat="46.05974" lon="3.75089">
        <ele>860</ele>
        <time>2011-11-18T15:17:41Z</time>
      </trkpt>
      <trkpt lat="46.06054" lon="3.74986">
        <ele>868</ele>
        <time>2011-11-18T15:17:41Z</time>
      </trkpt>
      <trkpt lat="46.06066" lon="3.7495">
        <ele>869</ele>
        <time>2011-11-18T15:17:41Z</time>
      </trkpt>
      <trkpt lat="46.06113" lon="3.74837">
        <ele>870</ele>
        <time>2011-11-18T15:17:41Z</time>
      </trkpt>
      <trkpt lat="46.06147" lon="3.74726">
        <ele>868</ele>
        <time>2011-11-18T15:17:41Z</time>
      </trkpt>
      <trkpt lat="46.06174" lon="3.74632">
        <ele>867</ele>
        <time>2011-11-18T15:17:41Z</time>
      </trkpt>
      <trkpt lat="46.06155" lon="3.74444">
        <ele>865</ele>
        <time>2011-11-18T15:17:41Z</time>
      </trkpt>
      <trkpt lat="46.0616" lon="3.74393">
        <ele>863</ele>
        <time>2011-11-18T15:17:41Z</time>
      </trkpt>
      <trkpt lat="46.06171" lon="3.74346">
        <ele>860</ele>
        <time>2011-11-18T15:17:41Z</time>
      </trkpt>
      <trkpt lat="46.06212" lon="3.74261">
        <ele>848</ele>
        <time>2011-11-18T15:17:41Z</time>
      </trkpt>
      <trkpt lat="46.06236" lon="3.74208">
        <ele>840</ele>
        <time>2011-11-18T15:17:41Z</time>
      </trkpt>
      <trkpt lat="46.06316" lon="3.74089">
        <ele>820</ele>
        <time>2011-11-18T15:17:41Z</time>
      </trkpt>
      <trkpt lat="46.06372" lon="3.74002">
        <ele>809</ele>
        <time>2011-11-18T15:17:41Z</time>
      </trkpt>
      <trkpt lat="46.06385" lon="3.73967">
        <ele>808</ele>
        <time>2011-11-18T15:17:41Z</time>
      </trkpt>
      <trkpt lat="46.06389" lon="3.73935">
        <ele>807</ele>
        <time>2011-11-18T15:17:41Z</time>
      </trkpt>
      <trkpt lat="46.06392" lon="3.73771">
        <ele>805</ele>
        <time>2011-11-18T15:17:41Z</time>
      </trkpt>
      <trkpt lat="46.06389" lon="3.73697">
        <ele>806</ele>
        <time>2011-11-18T15:17:41Z</time>
      </trkpt>
      <trkpt lat="46.06393" lon="3.73631">
        <ele>807</ele>
        <time>2011-11-18T15:17:41Z</time>
      </trkpt>
      <trkpt lat="46.06411" lon="3.73522">
        <ele>815</ele>
        <time>2011-11-18T15:17:41Z</time>
      </trkpt>
      <trkpt lat="46.0645" lon="3.7341">
        <ele>818</ele>
        <time>2011-11-18T15:17:41Z</time>
      </trkpt>
      <trkpt lat="46.06457" lon="3.73385">
        <ele>818</ele>
        <time>2011-11-18T15:17:41Z</time>
      </trkpt>
      <trkpt lat="46.06512" lon="3.73314">
        <ele>829</ele>
        <time>2011-11-18T15:17:41Z</time>
      </trkpt>
      <trkpt lat="46.06567" lon="3.73264">
        <ele>836</ele>
        <time>2011-11-18T15:17:41Z</time>
      </trkpt>
      <trkpt lat="46.06617" lon="3.73209">
        <ele>834</ele>
        <time>2011-11-18T15:17:41Z</time>
      </trkpt>
      <trkpt lat="46.06624" lon="3.73193">
        <ele>831</ele>
        <time>2011-11-18T15:17:41Z</time>
      </trkpt>
      <trkpt lat="46.0664" lon="3.73181">
        <ele>830</ele>
        <time>2011-11-18T15:17:41Z</time>
      </trkpt>
      <trkpt lat="46.06664" lon="3.73173">
        <ele>830</ele>
        <time>2011-11-18T15:17:41Z</time>
      </trkpt>
      <trkpt lat="46.06697" lon="3.73125">
        <ele>824</ele>
        <time>2011-11-18T15:17:41Z</time>
      </trkpt>
      <trkpt lat="46.06721" lon="3.73106">
        <ele>823</ele>
        <time>2011-11-18T15:17:41Z</time>
      </trkpt>
      <trkpt lat="46.06738" lon="3.73102">
        <ele>824</ele>
        <time>2011-11-18T15:17:41Z</time>
      </trkpt>
      <trkpt lat="46.06749" lon="3.73086">
        <ele>823</ele>
        <time>2011-11-18T15:17:41Z</time>
      </trkpt>
      <trkpt lat="46.06791" lon="3.73086">
        <ele>826</ele>
        <time>2011-11-18T15:17:41Z</time>
      </trkpt>
      <trkpt lat="46.06817" lon="3.73064">
        <ele>825</ele>
        <time>2011-11-18T15:17:41Z</time>
      </trkpt>
      <trkpt lat="46.06827" lon="3.73045">
        <ele>824</ele>
        <time>2011-11-18T15:17:41Z</time>
      </trkpt>
      <trkpt lat="46.06838" lon="3.73028">
        <ele>823</ele>
        <time>2011-11-18T15:17:41Z</time>
      </trkpt>
      <trkpt lat="46.06887" lon="3.73013">
        <ele>827</ele>
        <time>2011-11-18T15:17:41Z</time>
      </trkpt>
      <trkpt lat="46.06908" lon="3.73016">
        <ele>829</ele>
        <time>2011-11-18T15:17:41Z</time>
      </trkpt>
      <trkpt lat="46.06943" lon="3.73037">
        <ele>835</ele>
        <time>2011-11-18T15:17:41Z</time>
      </trkpt>
      <trkpt lat="46.06968" lon="3.73072">
        <ele>836</ele>
        <time>2011-11-18T15:17:41Z</time>
      </trkpt>
      <trkpt lat="46.06983" lon="3.73108">
        <ele>836</ele>
        <time>2011-11-18T15:17:41Z</time>
      </trkpt>
      <trkpt lat="46.06995" lon="3.7312">
        <ele>834</ele>
        <time>2011-11-18T15:17:41Z</time>
      </trkpt>
      <trkpt lat="46.07032" lon="3.73126">
        <ele>829</ele>
        <time>2011-11-18T15:17:41Z</time>
      </trkpt>
      <trkpt lat="46.07039" lon="3.73144">
        <ele>828</ele>
        <time>2011-11-18T15:17:41Z</time>
      </trkpt>
      <trkpt lat="46.07035" lon="3.732">
        <ele>825</ele>
        <time>2011-11-18T15:17:41Z</time>
      </trkpt>
      <trkpt lat="46.07006" lon="3.73256">
        <ele>822</ele>
        <time>2011-11-18T15:17:41Z</time>
      </trkpt>
      <trkpt lat="46.06982" lon="3.73324">
        <ele>823</ele>
        <time>2011-11-18T15:17:41Z</time>
      </trkpt>
      <trkpt lat="46.06977" lon="3.73372">
        <ele>824</ele>
        <time>2011-11-18T15:17:41Z</time>
      </trkpt>
      <trkpt lat="46.06981" lon="3.73425">
        <ele>823</ele>
        <time>2011-11-18T15:17:41Z</time>
      </trkpt>
      <trkpt lat="46.06982" lon="3.73449">
        <ele>821</ele>
        <time>2011-11-18T15:17:41Z</time>
      </trkpt>
      <trkpt lat="46.0699" lon="3.73475">
        <ele>820</ele>
        <time>2011-11-18T15:17:41Z</time>
      </trkpt>
      <trkpt lat="46.07019" lon="3.73541">
        <ele>817</ele>
        <time>2011-11-18T15:17:41Z</time>
      </trkpt>
      <trkpt lat="46.07075" lon="3.73602">
        <ele>813</ele>
        <time>2011-11-18T15:17:41Z</time>
      </trkpt>
      <trkpt lat="46.07087" lon="3.73614">
        <ele>812</ele>
        <time>2011-11-18T15:17:41Z</time>
      </trkpt>
      <trkpt lat="46.07156" lon="3.73657">
        <ele>805</ele>
        <time>2011-11-18T15:17:41Z</time>
      </trkpt>
      <trkpt lat="46.07158" lon="3.73688">
        <ele>802</ele>
        <time>2011-11-18T15:17:41Z</time>
      </trkpt>
      <trkpt lat="46.07138" lon="3.73836">
        <ele>797</ele>
        <time>2011-11-18T15:17:41Z</time>
      </trkpt>
      <trkpt lat="46.07139" lon="3.73898">
        <ele>794</ele>
        <time>2011-11-18T15:17:41Z</time>
      </trkpt>
      <trkpt lat="46.07154" lon="3.73959">
        <ele>792</ele>
        <time>2011-11-18T15:17:41Z</time>
      </trkpt>
      <trkpt lat="46.072" lon="3.7406">
        <ele>787</ele>
        <time>2011-11-18T15:17:41Z</time>
      </trkpt>
      <trkpt lat="46.07223" lon="3.74147">
        <ele>785</ele>
        <time>2011-11-18T15:17:41Z</time>
      </trkpt>
      <trkpt lat="46.07237" lon="3.74172">
        <ele>783</ele>
        <time>2011-11-18T15:17:41Z</time>
      </trkpt>
      <trkpt lat="46.0724" lon="3.74177">
        <ele>783</ele>
        <time>2011-11-18T15:17:41Z</time>
      </trkpt>
      <trkpt lat="46.0724" lon="3.74169">
        <ele>784</ele>
        <time>2011-11-18T15:17:41Z</time>
      </trkpt>
      <trkpt lat="46.07264" lon="3.7415">
        <ele>783</ele>
        <time>2011-11-18T15:17:41Z</time>
      </trkpt>
      <trkpt lat="46.07312" lon="3.74095">
        <ele>779</ele>
        <time>2011-11-18T15:17:41Z</time>
      </trkpt>
      <trkpt lat="46.07336" lon="3.7408">
        <ele>776</ele>
        <time>2011-11-18T15:17:41Z</time>
      </trkpt>
      <trkpt lat="46.07346" lon="3.74075">
        <ele>775</ele>
        <time>2011-11-18T15:17:41Z</time>
      </trkpt>
      <trkpt lat="46.07382" lon="3.74063">
        <ele>771</ele>
        <time>2011-11-18T15:17:41Z</time>
      </trkpt>
      <trkpt lat="46.07419" lon="3.74062">
        <ele>767</ele>
        <time>2011-11-18T15:17:41Z</time>
      </trkpt>
      <trkpt lat="46.07455" lon="3.74085">
        <ele>760</ele>
        <time>2011-11-18T15:17:41Z</time>
      </trkpt>
      <trkpt lat="46.07462" lon="3.74086">
        <ele>758</ele>
        <time>2011-11-18T15:17:41Z</time>
      </trkpt>
      <trkpt lat="46.07469" lon="3.74081">
        <ele>756</ele>
        <time>2011-11-18T15:17:41Z</time>
      </trkpt>
      <trkpt lat="46.07481" lon="3.74076">
        <ele>753</ele>
        <time>2011-11-18T15:17:41Z</time>
      </trkpt>
      <trkpt lat="46.0748" lon="3.74068">
        <ele>752</ele>
        <time>2011-11-18T15:17:41Z</time>
      </trkpt>
      <trkpt lat="46.07521" lon="3.74022">
        <ele>743</ele>
        <time>2011-11-18T15:17:41Z</time>
      </trkpt>
      <trkpt lat="46.07562" lon="3.73941">
        <ele>732</ele>
        <time>2011-11-18T15:17:41Z</time>
      </trkpt>
      <trkpt lat="46.07573" lon="3.73878">
        <ele>724</ele>
        <time>2011-11-18T15:17:41Z</time>
      </trkpt>
      <trkpt lat="46.07589" lon="3.73859">
        <ele>725</ele>
        <time>2011-11-18T15:17:41Z</time>
      </trkpt>
      <trkpt lat="46.07658" lon="3.73812">
        <ele>731</ele>
        <time>2011-11-18T15:17:41Z</time>
      </trkpt>
      <trkpt lat="46.07699" lon="3.73805">
        <ele>728</ele>
        <time>2011-11-18T15:17:41Z</time>
      </trkpt>
      <trkpt lat="46.07752" lon="3.73763">
        <ele>724</ele>
        <time>2011-11-18T15:17:41Z</time>
      </trkpt>
      <trkpt lat="46.07793" lon="3.73702">
        <ele>722</ele>
        <time>2011-11-18T15:17:41Z</time>
      </trkpt>
      <trkpt lat="46.07825" lon="3.7368">
        <ele>720</ele>
        <time>2011-11-18T15:17:41Z</time>
      </trkpt>
      <trkpt lat="46.07858" lon="3.73595">
        <ele>724</ele>
        <time>2011-11-18T15:17:41Z</time>
      </trkpt>
      <trkpt lat="46.07872" lon="3.73543">
        <ele>722</ele>
        <time>2011-11-18T15:17:41Z</time>
      </trkpt>
      <trkpt lat="46.07873" lon="3.73521">
        <ele>722</ele>
        <time>2011-11-18T15:17:41Z</time>
      </trkpt>
      <trkpt lat="46.07861" lon="3.73461">
        <ele>722</ele>
        <time>2011-11-18T15:17:41Z</time>
      </trkpt>
      <trkpt lat="46.0783" lon="3.73384">
        <ele>719</ele>
        <time>2011-11-18T15:17:41Z</time>
      </trkpt>
      <trkpt lat="46.07825" lon="3.7332">
        <ele>712</ele>
        <time>2011-11-18T15:17:41Z</time>
      </trkpt>
      <trkpt lat="46.07814" lon="3.73231">
        <ele>707</ele>
        <time>2011-11-18T15:17:41Z</time>
      </trkpt>
      <trkpt lat="46.07821" lon="3.73159">
        <ele>701</ele>
        <time>2011-11-18T15:17:41Z</time>
      </trkpt>
      <trkpt lat="46.07822" lon="3.73082">
        <ele>696</ele>
        <time>2011-11-18T15:17:41Z</time>
      </trkpt>
      <trkpt lat="46.07836" lon="3.72992">
        <ele>700</ele>
        <time>2011-11-18T15:17:41Z</time>
      </trkpt>
      <trkpt lat="46.07838" lon="3.72944">
        <ele>701</ele>
        <time>2011-11-18T15:17:41Z</time>
      </trkpt>
      <trkpt lat="46.07829" lon="3.72861">
        <ele>709</ele>
        <time>2011-11-18T15:17:41Z</time>
      </trkpt>
      <trkpt lat="46.07829" lon="3.72826">
        <ele>710</ele>
        <time>2011-11-18T15:17:41Z</time>
      </trkpt>
      <trkpt lat="46.0784" lon="3.7279">
        <ele>712</ele>
        <time>2011-11-18T15:17:41Z</time>
      </trkpt>
      <trkpt lat="46.07874" lon="3.72734">
        <ele>714</ele>
        <time>2011-11-18T15:17:41Z</time>
      </trkpt>
      <trkpt lat="46.07904" lon="3.72703">
        <ele>718</ele>
        <time>2011-11-18T15:17:41Z</time>
      </trkpt>
      <trkpt lat="46.07914" lon="3.72675">
        <ele>721</ele>
        <time>2011-11-18T15:17:41Z</time>
      </trkpt>
      <trkpt lat="46.07915" lon="3.72644">
        <ele>722</ele>
        <time>2011-11-18T15:17:41Z</time>
      </trkpt>
      <trkpt lat="46.07909" lon="3.7259">
        <ele>722</ele>
        <time>2011-11-18T15:17:41Z</time>
      </trkpt>
      <trkpt lat="46.07915" lon="3.72547">
        <ele>718</ele>
        <time>2011-11-18T15:17:41Z</time>
      </trkpt>
      <trkpt lat="46.07961" lon="3.72432">
        <ele>710</ele>
        <time>2011-11-18T15:17:41Z</time>
      </trkpt>
      <trkpt lat="46.07975" lon="3.72376">
        <ele>707</ele>
        <time>2011-11-18T15:17:41Z</time>
      </trkpt>
      <trkpt lat="46.07968" lon="3.72344">
        <ele>704</ele>
        <time>2011-11-18T15:17:41Z</time>
      </trkpt>
      <trkpt lat="46.07958" lon="3.72344">
        <ele>704</ele>
        <time>2011-11-18T15:17:41Z</time>
      </trkpt>
      <trkpt lat="46.07874" lon="3.72382">
        <ele>700</ele>
        <time>2011-11-18T15:17:41Z</time>
      </trkpt>
      <trkpt lat="46.0776" lon="3.72404">
        <ele>688</ele>
        <time>2011-11-18T15:17:41Z</time>
      </trkpt>
      <trkpt lat="46.07628" lon="3.72463">
        <ele>684</ele>
        <time>2011-11-18T15:17:41Z</time>
      </trkpt>
      <trkpt lat="46.07513" lon="3.72526">
        <ele>683</ele>
        <time>2011-11-18T15:17:41Z</time>
      </trkpt>
      <trkpt lat="46.07478" lon="3.72554">
        <ele>684</ele>
        <time>2011-11-18T15:17:41Z</time>
      </trkpt>
      <trkpt lat="46.0745" lon="3.72556">
        <ele>684</ele>
        <time>2011-11-18T15:17:41Z</time>
      </trkpt>
      <trkpt lat="46.07421" lon="3.72569">
        <ele>684</ele>
        <time>2011-11-18T15:17:41Z</time>
      </trkpt>
      <trkpt lat="46.07402" lon="3.72568">
        <ele>684</ele>
        <time>2011-11-18T15:17:41Z</time>
      </trkpt>
      <trkpt lat="46.07372" lon="3.72548">
        <ele>682</ele>
        <time>2011-11-18T15:17:41Z</time>
      </trkpt>
      <trkpt lat="46.07328" lon="3.72533">
        <ele>680</ele>
        <time>2011-11-18T15:17:41Z</time>
      </trkpt>
      <trkpt lat="46.07276" lon="3.72556">
        <ele>676</ele>
        <time>2011-11-18T15:17:41Z</time>
      </trkpt>
      <trkpt lat="46.0724" lon="3.7253">
        <ele>678</ele>
        <time>2011-11-18T15:17:41Z</time>
      </trkpt>
      <trkpt lat="46.07238" lon="3.72525">
        <ele>678</ele>
        <time>2011-11-18T15:17:41Z</time>
      </trkpt>
      <trkpt lat="46.07247" lon="3.7248">
        <ele>676</ele>
        <time>2011-11-18T15:17:41Z</time>
      </trkpt>
      <trkpt lat="46.07262" lon="3.72429">
        <ele>674</ele>
        <time>2011-11-18T15:17:41Z</time>
      </trkpt>
      <trkpt lat="46.07262" lon="3.72398">
        <ele>674</ele>
        <time>2011-11-18T15:17:41Z</time>
      </trkpt>
      <trkpt lat="46.07269" lon="3.72323">
        <ele>671</ele>
        <time>2011-11-18T15:17:41Z</time>
      </trkpt>
      <trkpt lat="46.0728" lon="3.72292">
        <ele>672</ele>
        <time>2011-11-18T15:17:41Z</time>
      </trkpt>
      <trkpt lat="46.07295" lon="3.72271">
        <ele>674</ele>
        <time>2011-11-18T15:17:41Z</time>
      </trkpt>
      <trkpt lat="46.07333" lon="3.72206">
        <ele>674</ele>
        <time>2011-11-18T15:17:41Z</time>
      </trkpt>
      <trkpt lat="46.07425" lon="3.72076">
        <ele>679</ele>
        <time>2011-11-18T15:17:41Z</time>
      </trkpt>
      <trkpt lat="46.07447" lon="3.72037">
        <ele>679</ele>
        <time>2011-11-18T15:17:41Z</time>
      </trkpt>
      <trkpt lat="46.07489" lon="3.72005">
        <ele>685</ele>
        <time>2011-11-18T15:17:41Z</time>
      </trkpt>
      <trkpt lat="46.07517" lon="3.71912">
        <ele>687</ele>
        <time>2011-11-18T15:17:41Z</time>
      </trkpt>
      <trkpt lat="46.07531" lon="3.71855">
        <ele>680</ele>
        <time>2011-11-18T15:17:41Z</time>
      </trkpt>
      <trkpt lat="46.07546" lon="3.71814">
        <ele>674</ele>
        <time>2011-11-18T15:17:41Z</time>
      </trkpt>
      <trkpt lat="46.07564" lon="3.71803">
        <ele>670</ele>
        <time>2011-11-18T15:17:41Z</time>
      </trkpt>
      <trkpt lat="46.07577" lon="3.71784">
        <ele>665</ele>
        <time>2011-11-18T15:17:41Z</time>
      </trkpt>
      <trkpt lat="46.07581" lon="3.71772">
        <ele>664</ele>
        <time>2011-11-18T15:17:41Z</time>
      </trkpt>
      <trkpt lat="46.07578" lon="3.71757">
        <ele>662</ele>
        <time>2011-11-18T15:17:41Z</time>
      </trkpt>
      <trkpt lat="46.07575" lon="3.71739">
        <ele>659</ele>
        <time>2011-11-18T15:17:41Z</time>
      </trkpt>
      <trkpt lat="46.07548" lon="3.71708">
        <ele>654</ele>
        <time>2011-11-18T15:17:41Z</time>
      </trkpt>
      <trkpt lat="46.07531" lon="3.717">
        <ele>651</ele>
        <time>2011-11-18T15:17:41Z</time>
      </trkpt>
      <trkpt lat="46.07483" lon="3.71637">
        <ele>641</ele>
        <time>2011-11-18T15:17:41Z</time>
      </trkpt>
      <trkpt lat="46.07476" lon="3.71621">
        <ele>639</ele>
        <time>2011-11-18T15:17:41Z</time>
      </trkpt>
      <trkpt lat="46.07476" lon="3.71577">
        <ele>636</ele>
        <time>2011-11-18T15:17:41Z</time>
      </trkpt>
      <trkpt lat="46.07504" lon="3.71494">
        <ele>633</ele>
        <time>2011-11-18T15:17:41Z</time>
      </trkpt>
      <trkpt lat="46.07514" lon="3.71441">
        <ele>634</ele>
        <time>2011-11-18T15:17:41Z</time>
      </trkpt>
      <trkpt lat="46.07532" lon="3.7139">
        <ele>629</ele>
        <time>2011-11-18T15:17:41Z</time>
      </trkpt>
      <trkpt lat="46.07535" lon="3.71359">
        <ele>626</ele>
        <time>2011-11-18T15:17:41Z</time>
      </trkpt>
      <trkpt lat="46.0758" lon="3.7126">
        <ele>614</ele>
        <time>2011-11-18T15:17:41Z</time>
      </trkpt>
      <trkpt lat="46.07613" lon="3.71206">
        <ele>609</ele>
        <time>2011-11-18T15:17:41Z</time>
      </trkpt>
      <trkpt lat="46.07632" lon="3.71192">
        <ele>606</ele>
        <time>2011-11-18T15:17:41Z</time>
      </trkpt>
      <trkpt lat="46.07674" lon="3.71169">
        <ele>600</ele>
        <time>2011-11-18T15:17:41Z</time>
      </trkpt>
      <trkpt lat="46.07684" lon="3.71161">
        <ele>598</ele>
        <time>2011-11-18T15:17:41Z</time>
      </trkpt>
      <trkpt lat="46.07685" lon="3.71151">
        <ele>597</ele>
        <time>2011-11-18T15:17:41Z</time>
      </trkpt>
      <trkpt lat="46.07673" lon="3.7111">
        <ele>592</ele>
        <time>2011-11-18T15:17:41Z</time>
      </trkpt>
      <trkpt lat="46.07617" lon="3.71039">
        <ele>581</ele>
        <time>2011-11-18T15:17:41Z</time>
      </trkpt>
      <trkpt lat="46.07593" lon="3.71022">
        <ele>576</ele>
        <time>2011-11-18T15:17:41Z</time>
      </trkpt>
      <trkpt lat="46.07558" lon="3.71017">
        <ele>571</ele>
        <time>2011-11-18T15:17:41Z</time>
      </trkpt>
      <trkpt lat="46.07492" lon="3.71067">
        <ele>565</ele>
        <time>2011-11-18T15:17:41Z</time>
      </trkpt>
      <trkpt lat="46.07467" lon="3.71066">
        <ele>564</ele>
        <time>2011-11-18T15:17:41Z</time>
      </trkpt>
      <trkpt lat="46.07439" lon="3.70992">
        <ele>564</ele>
        <time>2011-11-18T15:17:41Z</time>
      </trkpt>
      <trkpt lat="46.07437" lon="3.70954">
        <ele>561</ele>
        <time>2011-11-18T15:17:41Z</time>
      </trkpt>
      <trkpt lat="46.07443" lon="3.70905">
        <ele>555</ele>
        <time>2011-11-18T15:17:41Z</time>
      </trkpt>
      <trkpt lat="46.07439" lon="3.70865">
        <ele>551</ele>
        <time>2011-11-18T15:17:41Z</time>
      </trkpt>
      <trkpt lat="46.07422" lon="3.70846">
        <ele>548</ele>
        <time>2011-11-18T15:17:41Z</time>
      </trkpt>
      <trkpt lat="46.07404" lon="3.70796">
        <ele>546</ele>
        <time>2011-11-18T15:17:41Z</time>
      </trkpt>
      <trkpt lat="46.07407" lon="3.70765">
        <ele>545</ele>
        <time>2011-11-18T15:17:41Z</time>
      </trkpt>
      <trkpt lat="46.07434" lon="3.70731">
        <ele>545</ele>
        <time>2011-11-18T15:17:41Z</time>
      </trkpt>
      <trkpt lat="46.07469" lon="3.70708">
        <ele>539</ele>
        <time>2011-11-18T15:17:41Z</time>
      </trkpt>
      <trkpt lat="46.07474" lon="3.70691">
        <ele>537</ele>
        <time>2011-11-18T15:17:41Z</time>
      </trkpt>
      <trkpt lat="46.07447" lon="3.70575">
        <ele>528</ele>
        <time>2011-11-18T15:17:41Z</time>
      </trkpt>
      <trkpt lat="46.07447" lon="3.70568">
        <ele>528</ele>
        <time>2011-11-18T15:17:41Z</time>
      </trkpt>
      <trkpt lat="46.0745" lon="3.70531">
        <ele>530</ele>
        <time>2011-11-18T15:17:41Z</time>
      </trkpt>
      <trkpt lat="46.07439" lon="3.70466">
        <ele>525</ele>
        <time>2011-11-18T15:17:41Z</time>
      </trkpt>
      <trkpt lat="46.07432" lon="3.70447">
        <ele>523</ele>
        <time>2011-11-18T15:17:41Z</time>
      </trkpt>
      <trkpt lat="46.07411" lon="3.70437">
        <ele>519</ele>
        <time>2011-11-18T15:17:41Z</time>
      </trkpt>
      <trkpt lat="46.07386" lon="3.70393">
        <ele>508</ele>
        <time>2011-11-18T15:17:41Z</time>
      </trkpt>
      <trkpt lat="46.07419" lon="3.70331">
        <ele>501</ele>
        <time>2011-11-18T15:17:41Z</time>
      </trkpt>
      <trkpt lat="46.07427" lon="3.70283">
        <ele>497</ele>
        <time>2011-11-18T15:17:41Z</time>
      </trkpt>
      <trkpt lat="46.07415" lon="3.70173">
        <ele>492</ele>
        <time>2011-11-18T15:17:41Z</time>
      </trkpt>
      <trkpt lat="46.07415" lon="3.7013">
        <ele>491</ele>
        <time>2011-11-18T15:17:41Z</time>
      </trkpt>
      <trkpt lat="46.07421" lon="3.7005">
        <ele>484</ele>
        <time>2011-11-18T15:17:41Z</time>
      </trkpt>
      <trkpt lat="46.07412" lon="3.69992">
        <ele>480</ele>
        <time>2011-11-18T15:17:41Z</time>
      </trkpt>
      <trkpt lat="46.07408" lon="3.69988">
        <ele>479</ele>
        <time>2011-11-18T15:17:41Z</time>
      </trkpt>
      <trkpt lat="46.07383" lon="3.69997">
        <ele>479</ele>
        <time>2011-11-18T15:17:41Z</time>
      </trkpt>
      <trkpt lat="46.07109" lon="3.70172">
        <ele>471</ele>
        <time>2011-11-18T15:17:41Z</time>
      </trkpt>
      <trkpt lat="46.06258" lon="3.70352">
        <ele>484</ele>
        <time>2011-11-18T15:17:41Z</time>
      </trkpt>
    </trkseg>
  </trk>
</gpx>